Weather Roundup
Issued by NWS

Home | Current Version | Previous Version | Text Only | Print | Product List | Glossary On
Versions: 1 2 3 4 5 6 7 8 9 10 11 12 13 14 15 16 17 18 19 20 21 22 23 24 25 26 27 28 29 30 31 32 33 34 35 36 37 38 39 40 41 42 43 44 45 46 47 48 49 50
000
NZUS93 KARX 242259
HRRWXR

CURRENT HOURLY OBSERVATIONS ACROSS
MUCH OF THE UPPER MISSISSIPPI VALLEY
NATIONAL WEATHER SERVICE LA CROSSE WI
600 PM CDT SUN JUL 24 2016


...SOUTHEAST MINNESOTA...


CITY           SKY/WX    TMP DP  RH WIND       PRES   REMARKS
ROCHESTER      MOSUNNY   75  65  70 NW8       29.96F
ROCHESTER/MAYO FAIR      77  64  64 NW9       29.96S
WINONA         MOSUNNY   81  63  54 NW13G18   29.92S
AUSTIN         CLOUDY    75  63  64 NW7       29.97F
ALBERT LEA     CLOUDY    75  64  69 NW7       29.97F
DODGE CENTER   CLOUDY    75  64  69 W8        29.98F
PRESTON        PTSUNNY   76  63  64 NW13      29.97F
OWATONNA       CLOUDY    77  64  65 W7        29.97F
FARIBAULT      CLOUDY    79  66  65 W7        29.96F
$$

...ELSEWHERE IN MINNESOTA...


CITY           SKY/WX    TMP DP  RH WIND       PRES   REMARKS
MINNEAPOLIS    CLOUDY    83  63  50 W15       29.93F
INTNL FALLS    PTSUNNY   76  60  57 W13G20    29.82R
DULUTH         CLOUDY    80  60  50 W17       29.87R
RED WING       MOSUNNY   84  63  48 W14       29.92S
REDWOOD FALLS  CLOUDY    80  62  54 NW10      29.98S
MANKATO        CLOUDY    77  63  61 W14       29.97F
WORTHINGTON    CLOUDY    76  63  64 NW12      30.03S
FAIRMONT       CLOUDY    73  48  40 N8        29.96F
$$

...SOUTHWEST WISCONSIN...


CITY           SKY/WX    TMP DP  RH WIND       PRES   REMARKS
LA CROSSE      MOSUNNY   85  66  53 NW13      29.90R
PRAIRIE DU CHI MOSUNNY   82  65  55 W10G20    29.91R
BOSCOBEL       MOSUNNY   86  69  56 W8        29.91R HX  90
LONE ROCK      NOT AVBL
PLATTEVILLE    SUNNY     86  75  70 NW10G16   29.90R HX  95
FORT MC COY    MOSUNNY   83  64  54 W10G21    29.91R
MAUSTON-NEW LI PTCLDY    84  69  60 W10G16    29.88R
VIROQUA        FAIR      81  65  58 W8        29.93R
WIS DELLS      NOT AVBL
$$

...ELSEWHERE IN WISCONSIN...


CITY           SKY/WX    TMP DP  RH WIND       PRES   REMARKS
MILWAUKEE      PTSUNNY   93  77  59 SW14G24   29.81S HX 107
MADISON        CLOUDY    89  76  65 W10G16    29.84R HX 100
GREEN BAY      SUNNY     85  75  72 W10       29.79S HX  93
EAU CLAIRE     NOT AVBL
BLACK RVR FLS  FAIR      84  61  46 W16G23    29.90R
MEDFORD        PTSUNNY   78  65  64 W12G17    29.88R
WAUSAU         MOSUNNY   83  65  54 W14G23    29.85R
WIS RAPIDS     MOSUNNY   86  64  47 NW12      29.88R
MARSHFIELD     MOSUNNY   82  65  56 W12G22    29.89R
RICE LAKE      SUNNY     80  61  52 W14G20    29.93R
$$

...NORTHEAST IOWA...


CITY           SKY/WX    TMP DP  RH WIND       PRES   REMARKS
WATERLOO       CLOUDY    79  64  60 NW10      29.94F
DUBUQUE        SUNNY     86  71  60 NW14      29.92R HX  91
DECORAH        CLOUDY    79  66  65 VRB7G16   29.95R
MASON CITY     CLOUDY    78  63  59 NW12      29.99F
CHARLES CITY   CLOUDY    79  66  65 NW8       29.97F
OELWEIN        CLOUDY    79  68  69 NW16      29.97R
$$

...ELSEWHERE IN IOWA...


CITY           SKY/WX    TMP DP  RH WIND       PRES   REMARKS
DES MOINES     CLOUDY    84  65  52 N9        29.98R
IOWA CITY      PTSUNNY   87  72  60 NW14      29.93R HX  93
FORT DODGE     CLOUDY    81  66  61 N8        30.00S
MARSHALLTOWN   CLOUDY    78  68  71 NW9       29.97S
CEDAR RAPIDS   CLOUDY    84  72  67 NW12      29.93R
$$

...NORTHERN ILLINOIS...


CITY           SKY/WX    TMP DP  RH WIND       PRES   REMARKS
CHICAGO-OHARE  TSTM      83  63  50 NW17G32   29.86R
CHICAGO-MIDWAY CLOUDY    92  79  65 S15       29.84F HX 108
MOLINE         CLOUDY    89  79  72 W8        29.87S HX 104
ROCKFORD       PTSUNNY   93  80  65 W14       29.86S HX 112
PEORIA         CLOUDY    91  83  77 SW10      29.86F HX 114
$$

NOTE: "FAIR" INDICATES FEW OR NO CLOUDS BELOW 12,000 FEET WITH NO
SIGNIFICANT WEATHER AND/OR OBSTRUCTIONS TO VISIBILITY. WIND
SPEEDS ARE IN MILES-PER-HOUR.




USA.gov is the U.S. government's official web portal to all federal, state and local government web resources and services.